| time (UTC) | temp C | wind direction | speed KPH | gust KPH | rain 1hr cm | rain 24hr cm | rain mn cm | humidity % | barometer mb |
| 20260504100119 | -17 | 201 | 0.0 | 0.0 | 0.00 | 0.00 | 0.00 | 1009.5 | |
| 20260504081512 | -17 | 213 | 0.0 | 0.0 | 0.00 | 0.00 | 0.00 | 1010.0 | |
| 20260504081008 | -17 | 190 | 0.0 | 1.6 | 0.00 | 0.00 | 0.00 | 1010.1 | |
| 20260504080504 | -17 | 227 | 1.6 | 1.6 | 0.00 | 0.00 | 0.00 | 1009.9 | |
| 20260504050317 | -17 | 220 | 0.0 | 0.0 | 0.00 | 0.00 | 0.00 | 1010.4 | |
| 20260504045814 | -17 | 220 | 0.0 | 0.0 | 0.00 | 0.00 | 0.00 | 1010.5 | |
| 20260504045314 | -17 | 216 | 1.6 | 1.6 | 0.00 | 0.00 | 0.00 | 1010.4 | |
| 20260504044811 | -17 | 210 | 0.0 | 0.0 | 0.00 | 0.00 | 0.00 | 1010.7 | |
| 20260504044309 | -17 | 210 | 0.0 | 0.0 | 0.00 | 0.00 | 0.00 | 1010.9 | |
| 20260504043806 | -17 | 185 | 1.6 | 3.2 | 0.00 | 0.00 | 0.00 | 1010.9 | |
| 20260504043303 | -17 | 194 | 0.0 | 1.6 | 0.00 | 0.00 | 0.00 | 1010.8 | |
| 20260504042801 | -17 | 217 | 0.0 | 1.6 | 0.00 | 0.00 | 0.00 | 1010.7 | |
| 20260504042257 | -17 | 222 | 1.6 | 3.2 | 0.00 | 0.00 | 0.00 | 1011.0 | |
| 20260504041753 | -17 | 230 | 3.2 | 4.8 | 0.00 | 0.00 | 0.00 | 1011.1 | |
| 20260504041249 | -17 | 206 | 3.2 | 4.8 | 0.00 | 0.00 | 0.00 | 1011.0 | |
| 20260504040745 | -17 | 213 | 1.6 | 3.2 | 0.00 | 0.00 | 0.00 | 1011.1 | |
| 20260504040243 | -17 | 215 | 1.6 | 1.6 | 0.00 | 0.00 | 0.00 | 1010.8 | |
| 20260504035739 | -17 | 194 | 3.2 | 3.2 | 0.00 | 0.00 | 0.00 | 1011.0 | |
| 20260504035236 | -17 | 220 | 1.6 | 1.6 | 0.00 | 0.00 | 0.00 | 1010.9 | |
| 20260504034734 | -17 | 236 | 9.7 | 12.9 | 0.00 | 0.00 | 0.00 | 1010.9 | |
| 20260504034231 | -17 | 191 | 3.2 | 3.2 | 0.00 | 0.00 | 0.00 | 1010.9 | |
| 20260504033729 | -17 | 262 | 4.8 | 4.8 | 0.00 | 0.00 | 0.00 | 1011.1 | |
| 20260504033226 | -17 | 227 | 1.6 | 1.6 | 0.00 | 0.00 | 0.00 | 1010.9 | |
| 20260504032722 | -17 | 251 | 0.0 | 0.0 | 0.00 | 0.00 | 0.00 | 1010.8 | |
| 20260504032220 | -17 | 204 | 0.0 | 0.0 | 0.00 | 0.00 | 0.00 | 1010.9 | |
| 20260504031716 | -17 | 183 | 0.0 | 1.6 | 0.00 | 0.00 | 0.00 | 1011.1 | |
| 20260504031214 | -17 | 226 | 1.6 | 1.6 | 0.00 | 0.00 | 0.00 | 1011.0 | |
| 20260504030709 | -17 | 235 | 4.8 | 4.8 | 0.00 | 0.00 | 0.00 | 1011.1 | |
| 20260504030207 | -17 | 268 | 3.2 | 4.8 | 0.00 | 0.00 | 0.00 | 1011.1 | |
| 20260504025703 | -17 | 204 | 0.0 | 1.6 | 0.00 | 0.00 | 0.00 | 1011.1 | |
| 20260504025200 | -17 | 203 | 0.0 | 1.6 | 0.00 | 0.00 | 0.00 | 1011.0 | |
| 20260504024657 | -17 | 225 | 1.6 | 3.2 | 0.00 | 0.00 | 0.00 | 1011.1 | |
| 20260504024153 | -17 | 155 | 1.6 | 1.6 | 0.00 | 0.00 | 0.00 | 1011.2 | |
| 20260504023650 | -17 | 228 | 1.6 | 1.6 | 0.00 | 0.00 | 0.00 | 1011.2 | |
| 20260504023146 | -17 | 218 | 0.0 | 1.6 | 0.00 | 0.00 | 0.00 | 1011.1 | |
| 20260504022643 | -17 | 273 | 3.2 | 3.2 | 0.00 | 0.00 | 0.00 | 1011.2 | |
| 20260504022138 | -17 | 232 | 0.0 | 0.0 | 0.00 | 0.00 | 0.00 | 1011.2 | |
| 20260504021637 | -17 | 234 | 1.6 | 1.6 | 0.00 | 0.00 | 0.00 | 1011.0 | |
| 20260504021133 | -17 | 239 | 1.6 | 3.2 | 0.00 | 0.00 | 0.00 | 1011.0 | |
| 20260504020630 | -17 | 233 | 0.0 | 0.0 | 0.00 | 0.00 | 0.00 | 1011.1 | |
| 20260504020126 | -17 | 239 | 0.0 | 0.0 | 0.00 | 0.00 | 0.00 | 1011.1 | |
| 20260504015623 | -17 | 247 | 1.6 | 1.6 | 0.00 | 0.00 | 0.00 | 1011.2 | |
| 20260504015119 | -17 | 238 | 1.6 | 1.6 | 0.00 | 0.00 | 0.00 | 1011.2 | |
| 20260504014615 | -17 | 225 | 0.0 | 1.6 | 0.00 | 0.00 | 0.00 | 1011.1 | |
| 20260504014113 | -17 | 238 | 1.6 | 1.6 | 0.00 | 0.00 | 0.00 | 1010.9 | |
| 20260504013610 | -17 | 224 | 1.6 | 1.6 | 0.00 | 0.00 | 0.00 | 1011.3 | |
| 20260504013107 | -17 | 221 | 1.6 | 1.6 | 0.00 | 0.00 | 0.00 | 1010.8 | |
| 20260504012604 | -17 | 224 | 0.0 | 1.6 | 0.00 | 0.00 | 0.00 | 1011.2 | |
| 20260504012102 | -17 | 222 | 1.6 | 1.6 | 0.00 | 0.00 | 0.00 | 1011.0 | |
| 20260504011559 | -17 | 226 | 1.6 | 1.6 | 0.00 | 0.00 | 0.00 | 1011.0 | |
| 20260504011055 | -17 | 221 | 1.6 | 1.6 | 0.00 | 0.00 | 0.00 | 1011.2 | |
| 20260504010550 | -17 | 248 | 1.6 | 1.6 | 0.00 | 0.00 | 0.00 | 1011.0 | |
| 20260504010047 | -17 | 239 | 1.6 | 1.6 | 0.00 | 0.00 | 0.00 | 1010.9 | |
| 20260504005543 | -17 | 340 | 3.2 | 3.2 | 0.00 | 0.00 | 0.00 | 1010.8 | |
| 20260504005041 | -17 | 213 | 0.0 | 0.0 | 0.00 | 0.00 | 0.00 | 1010.9 | |
| 20260504004539 | -17 | 228 | 1.6 | 1.6 | 0.00 | 0.00 | 0.00 | 1010.9 | |
| 20260504004036 | -17 | 228 | 0.0 | 0.0 | 0.00 | 0.00 | 0.00 | 1011.1 | |
| 20260504003532 | -17 | 238 | 1.6 | 1.6 | 0.00 | 0.00 | 0.00 | 1010.8 | |
| 20260504003029 | -17 | 228 | 0.0 | 0.0 | 0.00 | 0.00 | 0.00 | 1010.7 | |
| 20260504002525 | -17 | 228 | 0.0 | 1.6 | 0.00 | 0.00 | 0.00 | 1010.8 | |
| 20260504002023 | -17 | 228 | 0.0 | 0.0 | 0.00 | 0.00 | 0.00 | 1010.7 | |
| 20260504001521 | -17 | 222 | 0.0 | 1.6 | 0.00 | 0.00 | 0.00 | 1010.8 | |
| 20260504001017 | -17 | 210 | 0.0 | 0.0 | 0.00 | 0.00 | 0.00 | 1010.6 | |
| 20260504000514 | -17 | 217 | 0.0 | 0.0 | 0.00 | 0.00 | 0.00 | 1010.6 | |
| 20260504000011 | -17 | 231 | 3.2 | 3.2 | 0.00 | 0.00 | 0.00 | 1010.7 | |
| 20260503235509 | -17 | 254 | 4.8 | 4.8 | 0.00 | 0.00 | 0.00 | 1010.6 | |
| 20260503235006 | -17 | 238 | 1.6 | 1.6 | 0.00 | 0.00 | 0.00 | 1010.5 | |
| 20260503234503 | -17 | 227 | 3.2 | 3.2 | 0.00 | 0.00 | 0.00 | 1010.5 | |
| 20260503234002 | -17 | 323 | 11.3 | 14.5 | 0.00 | 0.00 | 0.00 | 1010.5 | |
| 20260503233457 | -17 | 259 | 3.2 | 6.4 | 0.00 | 0.00 | 0.00 | 1010.4 | |
| 20260503232954 | -17 | 258 | 3.2 | 4.8 | 0.00 | 0.00 | 0.00 | 1010.3 | |
| 20260503232451 | -17 | 266 | 8.0 | 9.7 | 0.00 | 0.00 | 0.00 | 1010.1 | |
| 20260503231949 | -17 | 258 | 3.2 | 3.2 | 0.00 | 0.00 | 0.00 | 1010.1 | |
| 20260503231446 | -17 | 16 | 4.8 | 6.4 | 0.00 | 0.00 | 0.00 | 1010.2 | |
| 20260503230942 | -17 | 241 | 4.8 | 6.4 | 0.00 | 0.00 | 0.00 | 1009.9 | |
| 20260503230439 | -17 | 215 | 6.4 | 6.4 | 0.00 | 0.00 | 0.00 | 1010.0 | |
| 20260503225937 | -17 | 223 | 3.2 | 3.2 | 0.00 | 0.00 | 0.00 | 1009.9 | |
| 20260503225433 | -17 | 291 | 3.2 | 4.8 | 0.00 | 0.00 | 0.00 | 1009.8 | |
| 20260503224929 | -17 | 269 | 9.7 | 14.5 | 0.00 | 0.00 | 0.00 | 1009.8 | |
| 20260503224426 | -17 | 245 | 8.0 | 11.3 | 0.00 | 0.00 | 0.00 | 1009.6 | |
| 20260503223924 | -17 | 241 | 8.0 | 14.5 | 0.00 | 0.00 | 0.00 | 1009.7 | |
| 20260503223422 | -17 | 261 | 3.2 | 4.8 | 0.00 | 0.00 | 0.00 | 1009.6 | |
| 20260503222917 | -17 | 223 | 0.0 | 1.6 | 0.00 | 0.00 | 0.00 | 1009.6 | |
| 20260503222416 | -17 | 302 | 8.0 | 11.3 | 0.00 | 0.00 | 0.00 | 1009.8 | |
| 20260503221914 | -17 | 281 | 6.4 | 6.4 | 0.00 | 0.00 | 0.00 | 1009.6 | |
| 20260503221412 | -17 | 221 | 3.2 | 3.2 | 0.00 | 0.00 | 0.00 | 1009.7 | |
| 20260503220908 | -17 | 258 | 1.6 | 4.8 | 0.00 | 0.00 | 0.00 | 1009.7 | |
| 20260503220404 | -17 | 271 | 6.4 | 6.4 | 0.00 | 0.00 | 0.00 | 1009.7 | |
| 20260503215901 | -17 | 208 | 3.2 | 4.8 | 0.00 | 0.00 | 0.00 | 1009.6 | |
| 20260503215358 | -17 | 28 | 3.2 | 4.8 | 0.00 | 0.00 | 0.00 | 1009.5 | |
| 20260503214856 | -17 | 231 | 9.7 | 12.9 | 0.00 | 0.00 | 0.00 | 1009.6 | |
| 20260503214353 | -17 | 118 | 9.7 | 11.3 | 0.00 | 0.00 | 0.00 | 1009.9 | |
| 20260503213850 | -17 | 256 | 3.2 | 4.8 | 0.00 | 0.00 | 0.00 | 1009.6 | |
| 20260503213348 | -17 | 219 | 9.7 | 12.9 | 0.00 | 0.00 | 0.00 | 1009.7 | |
| 20260503212845 | -17 | 178 | 1.6 | 3.2 | 0.00 | 0.00 | 0.00 | 1009.7 | |
| 20260503212343 | -17 | 318 | 6.4 | 11.3 | 0.00 | 0.00 | 0.00 | 1009.7 | |
| 20260503211839 | -17 | 209 | 4.8 | 6.4 | 0.00 | 0.00 | 0.00 | 1009.7 | |
| 20260503211336 | -17 | 265 | 1.6 | 4.8 | 0.00 | 0.00 | 0.00 | 1009.8 | |
| 20260503210831 | -17 | 285 | 6.4 | 9.7 | 0.00 | 0.00 | 0.00 | 1009.9 | |
| 20260503210329 | -17 | 290 | 9.7 | 17.7 | 0.00 | 0.00 | 0.00 | 1009.9 | |
| 20260503205824 | -17 | 284 | 8.0 | 11.3 | 0.00 | 0.00 | 0.00 | 1009.9 | |
| 20260503205321 | -17 | 262 | 3.2 | 4.8 | 0.00 | 0.00 | 0.00 | 1009.8 | |
| 20260503204817 | -17 | 344 | 11.3 | 14.5 | 0.00 | 0.00 | 0.00 | 1009.8 | |
| 20260503204315 | -17 | 296 | 8.0 | 11.3 | 0.00 | 0.00 | 0.00 | 1010.1 | |
| 20260503203812 | -17 | 248 | 6.4 | 9.7 | 0.00 | 0.00 | 0.00 | 1010.0 | |
| 20260503203309 | -17 | 317 | 14.5 | 16.1 | 0.00 | 0.00 | 0.00 | 1009.9 | |
| 20260503202806 | -17 | 327 | 9.7 | 12.9 | 0.00 | 0.00 | 0.00 | 1010.0 | |
| 20260503202304 | -17 | 307 | 17.7 | 22.5 | 0.00 | 0.00 | 0.00 | 1010.0 | |
| 20260503201802 | -17 | 265 | 8.0 | 12.9 | 0.00 | 0.00 | 0.00 | 1010.3 | |
| 20260503201259 | -17 | 3 | 19.3 | 22.5 | 0.00 | 0.00 | 0.00 | 1010.1 | |
| 20260503200756 | -17 | 280 | 16.1 | 22.5 | 0.00 | 0.00 | 0.00 | 1010.4 | |
| 20260503200252 | -17 | 278 | 9.7 | 14.5 | 0.00 | 0.00 | 0.00 | 1010.1 | |
| 20260503195750 | -17 | 255 | 6.4 | 11.3 | 0.00 | 0.00 | 0.00 | 1010.0 | |
| 20260503195246 | -17 | 250 | 3.2 | 4.8 | 0.00 | 0.00 | 0.00 | 1010.1 | |
| 20260503194743 | -17 | 278 | 9.7 | 12.9 | 0.00 | 0.00 | 0.00 | 1010.3 | |
| 20260503194239 | -17 | 258 | 9.7 | 12.9 | 0.00 | 0.00 | 0.00 | 1010.3 | |
| 20260503193735 | -17 | 247 | 8.0 | 9.7 | 0.00 | 0.00 | 0.00 | 1010.4 | |
| 20260503193231 | -17 | 259 | 4.8 | 4.8 | 0.00 | 0.00 | 0.00 | 1010.5 | |
| 20260503192727 | -17 | 230 | 8.0 | 9.7 | 0.00 | 0.00 | 0.00 | 1010.4 | |
| 20260503192222 | -17 | 247 | 8.0 | 11.3 | 0.00 | 0.00 | 0.00 | 1010.4 | |
| 20260503191720 | -17 | 309 | 11.3 | 16.1 | 0.00 | 0.00 | 0.00 | 1010.4 | |
| 20260503191217 | -17 | 279 | 9.7 | 14.5 | 0.00 | 0.00 | 0.00 | 1010.4 | |
| 20260503190714 | -17 | 243 | 3.2 | 4.8 | 0.00 | 0.00 | 0.00 | 1010.6 | |
| 20260503190210 | -17 | 226 | 12.9 | 17.7 | 0.00 | 0.00 | 0.00 | 1010.6 | |
| 20260503185708 | -17 | 256 | 14.5 | 20.9 | 0.00 | 0.00 | 0.00 | 1010.7 | |
| 20260503185203 | -17 | 269 | 6.4 | 9.7 | 0.00 | 0.00 | 0.00 | 1010.9 | |
| 20260503184657 | -17 | 203 | 1.6 | 1.6 | 0.00 | 0.00 | 0.00 | 1010.8 | |
| 20260503184154 | -17 | 276 | 6.4 | 9.7 | 0.00 | 0.00 | 0.00 | 1010.8 | |
| 20260503183650 | -17 | 267 | 9.7 | 12.9 | 0.00 | 0.00 | 0.00 | 1010.8 | |
| 20260503183148 | -17 | 240 | 11.3 | 14.5 | 0.00 | 0.00 | 0.00 | 1010.8 | |
| 20260503182645 | -17 | 270 | 6.4 | 9.7 | 0.00 | 0.00 | 0.00 | 1010.8 | |
| 20260503182144 | -17 | 305 | 12.9 | 16.1 | 0.00 | 0.00 | 0.00 | 1010.9 | |
| 20260503181635 | -17 | 263 | 4.8 | 6.4 | 0.00 | 0.00 | 0.00 | 1011.0 | |
| 20260503181132 | -17 | 339 | 11.3 | 14.5 | 0.00 | 0.00 | 0.00 | 1011.1 | |
| 20260503180629 | -17 | 285 | 9.7 | 14.5 | 0.00 | 0.00 | 0.00 | 1010.9 | |
| 20260503180127 | -17 | 260 | 4.8 | 4.8 | 0.00 | 0.00 | 0.00 | 1011.0 | |
| 20260503175623 | -17 | 338 | 6.4 | 9.7 | 0.00 | 0.00 | 0.00 | 1011.2 | |
| 20260503175120 | -17 | 184 | 6.4 | 9.7 | 0.00 | 0.00 | 0.00 | 1011.0 | |
| 20260503174617 | -17 | 231 | 3.2 | 3.2 | 0.00 | 0.00 | 0.00 | 1011.0 | |
| 20260503174114 | -17 | 276 | 8.0 | 11.3 | 0.00 | 0.00 | 0.00 | 1011.0 | |
| 20260503173609 | -17 | 292 | 9.7 | 17.7 | 0.00 | 0.00 | 0.00 | 1011.1 | |
| 20260503173106 | -17 | 243 | 6.4 | 9.7 | 0.00 | 0.00 | 0.00 | 1011.1 | |
| 20260503172603 | -17 | 313 | 14.5 | 17.7 | 0.00 | 0.00 | 0.00 | 1011.1 | |
| 20260503172100 | -17 | 276 | 8.0 | 14.5 | 0.00 | 0.00 | 0.00 | 1011.0 | |
| 20260503171556 | -17 | 285 | 8.0 | 9.7 | 0.00 | 0.00 | 0.00 | 1011.2 | |
| 20260503171054 | -17 | 226 | 3.2 | 3.2 | 0.00 | 0.00 | 0.00 | 1011.5 | |
| 20260503170550 | -17 | 275 | 8.0 | 11.3 | 0.00 | 0.00 | 0.00 | 1011.5 | |
| 20260503150937 | -17 | 270 | 4.8 | 4.8 | 0.00 | 0.00 | 0.00 | 1012.4 | |
| 20260503150433 | -17 | 355 | 6.4 | 9.7 | 0.00 | 0.00 | 0.00 | 1012.2 | |
| 20260503131314 | -17 | 255 | 6.4 | 6.4 | 0.00 | 0.00 | 0.00 | 1012.6 | |
| 20260503130812 | -17 | 252 | 3.2 | 4.8 | 0.00 | 0.00 | 0.00 | 1012.6 | |
| 20260503130309 | -17 | 336 | 17.7 | 24.1 | 0.00 | 0.00 | 0.00 | 1012.5 | |
| 20260503110650 | -17 | 193 | 1.6 | 3.2 | 0.00 | 0.00 | 0.00 | 1012.3 | |
| 20260503110148 | -17 | 199 | 0.0 | 0.0 | 0.00 | 0.00 | 0.00 | 1012.4 |